Weather History for Rome Ciampino, Italy

Change the Weather History Date:

Thursday, June 13, 2013

  Actual Average Record
Temperature  
Mean Temperature 73 °F -  
Max Temperature 86 °F 84 °F 95 °F (2003)
Min Temperature 60 °F 60 °F 51 °F (1998)
Cooling Degree Days 8    
Growing Degree Days 23 (Base 50)    
Moisture  
Dew Point 50 °F    
Average Humidity 45    
Maximum Humidity 68    
Minimum Humidity 27    
Precipitation  
Precipitation 0.00 in 0.04 in - ()
Sea Level Pressure  
Sea Level Pressure 29.99 in    
Wind  
Wind Speed 5 mph ()    
Max Wind Speed 10 mph    
Max Gust Speed -    
Averages and records for this station are not official NWS values.
T = Trace of Precipitation, MM = Missing Value Source: Averaged Metar Reports

Daily Weather History Graph

Daily Weather History Graph

Search for Another Location

Airport:

Trip Planner

Search our weather history database for the weather conditions in past years. The results will help you decide how hot, cold, wet, or windy it might be!

Date:

Astronomy

Jun. 13, 2013 Rise Set
Actual Time 5:34 AM CEST 8:45 PM CEST
Civil Twilight 5:00 AM CEST 9:19 PM CEST
Nautical Twilight 4:16 AM CEST 10:03 PM CEST
Astronomical Twilight 3:23 AM CEST 10:56 PM CEST
Moon 9:57 AM CEST (6/13) 11:39 PM CEST (6/13)
Length of Visible Light 16h 19m
Length of Day
15h 11m
Waxing Crescent, 19% of the Moon is Illuminated
Jun 13
Waxing Crescent
Jun 16
First Quarter
Jun 23
Full
Jun 30
Last Quarter
Jul 8
New

Hourly Weather History & Observations

Time (CEST) Temp. Dew Point Humidity Pressure Visibility Wind Dir Wind Speed Gust Speed Precip Events Conditions
12:15 AM 68.0 °F 48.2 °F 49% 29.98 in - North 3.5 mph - N/A   Clear
12:45 AM 66.2 °F 48.2 °F 52% 29.98 in - NNE 3.5 mph - N/A   Clear
1:15 AM 66.2 °F 50.0 °F 56% 30.01 in - NNE 3.5 mph - N/A   Clear
1:45 AM 64.4 °F 50.0 °F 59% 30.01 in - NE 4.6 mph - N/A   Clear
2:15 AM 64.4 °F 50.0 °F 59% 30.01 in - North 3.5 mph - N/A   Clear
2:45 AM 64.4 °F 51.8 °F 64% 30.01 in - NE 4.6 mph - N/A   Clear
3:15 AM 64.4 °F 51.8 °F 64% 30.01 in - North 4.6 mph - N/A   Clear
3:45 AM 62.6 °F 50.0 °F 63% 30.01 in - NNE 5.8 mph - N/A   Clear
4:15 AM 62.6 °F 50.0 °F 63% 30.01 in - NNE 5.8 mph - N/A   Clear
4:45 AM 60.8 °F 50.0 °F 68% 30.01 in - ENE 5.8 mph - N/A   Clear
5:15 AM 60.8 °F 50.0 °F 68% 30.01 in - NNE 5.8 mph - N/A   Clear
5:45 AM 60.8 °F 50.0 °F 68% 30.01 in - NNE 5.8 mph - N/A   Clear
6:15 AM 62.6 °F 51.8 °F 68% 30.01 in - NNE 4.6 mph - N/A   Clear
6:45 AM 62.6 °F 51.8 °F 68% 30.01 in - North 5.8 mph - N/A   Clear
7:15 AM 64.4 °F 53.6 °F 68% 30.01 in - NE 3.5 mph - N/A   Clear
7:45 AM 66.2 °F 46.4 °F 49% 30.01 in - North 4.6 mph - N/A   Clear
8:15 AM 68.0 °F 51.8 °F 56% 30.01 in - North 5.8 mph - N/A   Clear
8:45 AM 69.8 °F 51.8 °F 53% 30.04 in - North 4.6 mph - N/A   Clear
9:15 AM 71.6 °F 53.6 °F 53% 30.04 in - North 4.6 mph - N/A   Clear
9:45 AM 73.4 °F 53.6 °F 50% 30.04 in - North 8.1 mph - N/A   Clear
10:15 AM 73.4 °F 53.6 °F 50% 30.04 in - North 5.8 mph - N/A   Clear
10:45 AM 75.2 °F 51.8 °F 44% 30.01 in - North 5.8 mph - N/A   Clear
11:15 AM 77.0 °F 50.0 °F 39% 30.01 in - North 8.1 mph - N/A   Clear
11:45 AM 78.8 °F 50.0 °F 36% 30.01 in - North 8.1 mph - N/A   Clear
12:15 PM 78.8 °F 50.0 °F 36% 30.01 in - North 6.9 mph - N/A   Clear
12:45 PM 80.6 °F 51.8 °F 37% 30.01 in - North 9.2 mph - N/A   Clear
1:15 PM 80.6 °F 50.0 °F 34% 30.01 in - NE 5.8 mph - N/A   Clear
1:45 PM 80.6 °F 50.0 °F 34% 29.98 in - NNW 8.1 mph - N/A   Clear
2:15 PM 82.4 °F 50.0 °F 32% 29.98 in - North 4.6 mph - N/A   Clear
2:45 PM 84.2 °F 50.0 °F 30% 29.98 in - NNW 4.6 mph - N/A   Clear
3:15 PM 84.2 °F 50.0 °F 30% 29.98 in - SSW 3.5 mph - N/A   Clear
3:45 PM 84.2 °F 50.0 °F 30% 29.98 in - NNW 8.1 mph - N/A   Clear
4:15 PM 84.2 °F 48.2 °F 29% 29.95 in - NNW 3.5 mph - N/A   Clear
4:45 PM 84.2 °F 48.2 °F 29% 29.95 in - WSW 5.8 mph - N/A   Clear
5:15 PM 86.0 °F 50.0 °F 29% 29.95 in - WNW 5.8 mph - N/A   Clear
5:45 PM 86.0 °F 48.2 °F 27% 29.95 in - North 3.5 mph - N/A   Clear
6:15 PM 84.2 °F 48.2 °F 29% 29.95 in - NNW 10.4 mph - N/A   Clear
6:45 PM 84.2 °F 48.2 °F 29% 29.95 in - NNW 9.2 mph - N/A   Clear
7:15 PM 84.2 °F 48.2 °F 29% 29.95 in - NW 9.2 mph - N/A   Clear
7:45 PM 82.4 °F 48.2 °F 30% 29.95 in - NNW 6.9 mph - N/A   Clear
8:15 PM 80.6 °F 48.2 °F 32% 29.95 in - NNW 9.2 mph - N/A   Clear
8:45 PM 78.8 °F 46.4 °F 32% 29.95 in - NW 6.9 mph - N/A   Clear
9:15 PM 77.0 °F 46.4 °F 34% 29.95 in - NW 4.6 mph - N/A   Clear
9:45 PM 75.2 °F 46.4 °F 36% 29.98 in - WNW 2.3 mph - N/A   Clear
10:15 PM 73.4 °F 46.4 °F 38% 29.98 in - WSW 2.3 mph - N/A   Clear
10:45 PM 71.6 °F 46.4 °F 41% 29.98 in - Calm Calm - N/A   Clear
11:15 PM 71.6 °F 51.8 °F 50% 29.98 in - South 3.5 mph - N/A   Clear
11:45 PM 69.8 °F 51.8 °F 53% 29.98 in - West 2.3 mph - N/A   Clear